Iowa Falls, IA

8:18 AM CST on December 07, 2019 (GMT -0600)
Iowa Falls Municipal

Weather History for KIFA - October, 2019

Change the Weather History Date:

Wednesday, October 16, 2019

  Actual Average Record
Temperature  
Mean Temperature 44 °F -  
Max Temperature 51 °F 62 °F 86 °F (1953)
Min Temperature 36 °F 38 °F 22 °F (1952)
Degree Days  
Heating Degree Days 21    
Moisture  
Dew Point 33 °F    
Average Humidity 66    
Maximum Humidity 83    
Minimum Humidity 46    
Precipitation  
Precipitation 0.00 in - - ()
Sea Level Pressure  
Sea Level Pressure 30.11 in    
Wind  
Wind Speed 10 mph ()    
Max Wind Speed 17 mph    
Max Gust Speed 22 mph    
Visibility 10.0 miles    
Events      
Averages and records for this station are not official NWS values.
T = Trace of Precipitation, MM = Missing Value Source: Averaged Metar Reports

Daily Weather History Graph

Daily Weather History Graph

Search for Another Location

Airport or City:

Astronomy

Oct. 16, 2019 Rise Set
Actual Time 7:26 AM CDT 6:29 PM CDT
Civil Twilight 6:58 AM CDT 6:58 PM CDT
Nautical Twilight 6:25 AM CDT 7:30 PM CDT
Astronomical Twilight 5:53 AM CDT 8:03 PM CDT
Moon 8:20 PM CDT (10/16) 10:00 AM CDT (10/16)
Length of Visible Light 11h 59m
Length of Day
11h 02m
Waning Gibbous, 92% of the Moon is Illuminated
Oct 16
Waning Gibbous
Oct 21
Last Quarter
Oct 27
New
Nov 4
First Quarter
Nov 12
Full

Hourly Weather History & Observations

Time (CDT) Temp. Windchill Dew Point Humidity Pressure Visibility Wind Dir Wind Speed Gust Speed Precip Events Conditions
12:15 AM 43.2 °F 36.6 °F 34.2 °F 71% 30.06 in 10.0 mi WNW 12.7 mph 19.6 mph N/A   Overcast
12:35 AM 43.7 °F 36.6 °F 34.3 °F 70% 30.06 in 10.0 mi WNW 15.0 mph - N/A   Overcast
12:55 AM 43.7 °F 36.9 °F 34.3 °F 70% 30.06 in 10.0 mi WNW 13.8 mph 18.4 mph N/A   Overcast
1:15 AM 43.5 °F 37.1 °F 34.7 °F 71% 30.06 in 10.0 mi WNW 12.7 mph 17.3 mph N/A   Overcast
1:35 AM 43.7 °F 37.7 °F 34.7 °F 71% 30.07 in 10.0 mi WNW 11.5 mph 20.7 mph N/A   Overcast
1:55 AM 43.7 °F 36.6 °F 34.9 °F 71% 30.08 in 10.0 mi WNW 15.0 mph 21.9 mph N/A   Overcast
2:15 AM 43.7 °F 36.0 °F 34.9 °F 71% 30.08 in 10.0 mi WNW 17.3 mph - N/A   Overcast
2:35 AM 43.9 °F 36.8 °F 34.9 °F 71% 30.08 in 10.0 mi WNW 15.0 mph 21.9 mph N/A   Overcast
2:55 AM 43.9 °F 37.2 °F 34.7 °F 70% 30.08 in 10.0 mi NW 13.8 mph 19.6 mph N/A   Overcast
3:35 AM 43.7 °F 36.9 °F 34.2 °F 69% 30.08 in 10.0 mi WNW 13.8 mph - N/A   Overcast
3:55 AM 43.7 °F 37.7 °F 34.0 °F 69% 30.08 in 10.0 mi NW 11.5 mph 21.9 mph N/A   Overcast
4:15 AM 43.7 °F 37.3 °F 34.0 °F 69% 30.09 in 10.0 mi NW 12.7 mph 20.7 mph N/A   Overcast
4:35 AM 43.5 °F 38.3 °F 34.0 °F 69% 30.10 in 10.0 mi NW 9.2 mph 16.1 mph N/A   Overcast
4:55 AM 42.8 °F 35.4 °F 34.7 °F 73% 30.11 in 10.0 mi NW 15.0 mph 20.7 mph N/A   Overcast
5:15 AM 42.4 °F 36.1 °F 34.7 °F 74% 30.12 in 10.0 mi NW 11.5 mph - N/A   Overcast
5:35 AM 42.4 °F 36.1 °F 34.7 °F 74% 30.12 in 10.0 mi NW 11.5 mph - N/A   Overcast
5:55 AM 42.3 °F 35.9 °F 34.5 °F 74% 30.12 in 10.0 mi WNW 11.5 mph 19.6 mph N/A   Overcast
6:15 AM 41.9 °F 34.3 °F 34.2 °F 74% 30.12 in 10.0 mi WNW 15.0 mph - N/A   Overcast
6:35 AM 41.7 °F 36.1 °F 34.0 °F 74% 30.11 in 10.0 mi NW 9.2 mph 18.4 mph N/A   Overcast
7:15 AM 40.1 °F 34.7 °F 33.1 °F 76% 30.12 in 10.0 mi NW 8.1 mph - N/A   Scattered Clouds
7:35 AM 40.6 °F 35.4 °F 33.8 °F 77% 30.12 in 10.0 mi NW 8.1 mph - N/A   Mostly Cloudy
7:55 AM 41.2 °F 34.5 °F 33.8 °F 75% 30.12 in 10.0 mi WNW 11.5 mph - N/A   Overcast
8:15 AM 41.5 °F 35.0 °F 33.8 °F 74% 30.12 in 10.0 mi NW 11.5 mph 17.3 mph N/A   Mostly Cloudy
8:35 AM 41.9 °F 35.4 °F 32.9 °F 70% 30.13 in 10.0 mi NW 11.5 mph - N/A   Overcast
9:35 AM 43.5 °F 36.1 °F 33.1 °F 67% 30.15 in 10.0 mi NW 16.1 mph 21.9 mph N/A   Mostly Cloudy
9:55 AM 44.1 °F 37.1 °F 33.1 °F 65% 30.15 in 10.0 mi WNW 15.0 mph 20.7 mph N/A   Overcast
10:15 AM 44.6 °F 38.1 °F 32.5 °F 63% 30.16 in 10.0 mi NW 13.8 mph 18.4 mph N/A   Overcast
10:35 AM 45.7 °F 39.5 °F 32.7 °F 61% 30.16 in 10.0 mi WNW 13.8 mph 17.3 mph N/A   Overcast
10:55 AM 45.5 °F 39.6 °F 32.0 °F 59% 30.16 in 10.0 mi NW 12.7 mph - N/A   Overcast
11:15 AM 45.9 °F 40.4 °F 32.5 °F 60% 30.16 in 10.0 mi WNW 11.5 mph 18.4 mph N/A   Overcast
11:35 AM 46.2 °F 40.5 °F 32.0 °F 58% 30.16 in 10.0 mi WNW 12.7 mph - N/A   Overcast
11:55 AM 46.0 °F 40.2 °F 32.0 °F 58% 30.16 in 10.0 mi WNW 12.7 mph 20.7 mph N/A   Overcast
12:15 PM 46.4 °F 41.5 °F 31.8 °F 57% 30.16 in 10.0 mi NW 10.4 mph 18.4 mph N/A   Overcast
12:35 PM 46.9 °F - 31.8 °F 56% 30.16 in 10.0 mi WNW 12.7 mph 16.1 mph N/A   Overcast
12:55 PM 47.1 °F - 31.6 °F 55% 30.16 in 10.0 mi NW 13.8 mph - N/A   Overcast
1:15 PM 47.3 °F - 31.8 °F 55% 30.15 in 10.0 mi WNW 12.7 mph - N/A   Overcast
1:35 PM 48.7 °F - 31.8 °F 52% 30.14 in 10.0 mi WNW 10.4 mph - N/A   Overcast
1:55 PM 49.1 °F - 30.9 °F 50% 30.12 in 10.0 mi NW 5.8 mph - N/A   Mostly Cloudy
2:15 PM 50.2 °F - 31.3 °F 48% 30.12 in 10.0 mi NNW 10.4 mph - N/A   Mostly Cloudy
2:35 PM 49.3 °F - 31.1 °F 50% 30.12 in 10.0 mi NW 5.8 mph - N/A   Mostly Cloudy
2:55 PM 49.6 °F - 31.3 °F 49% 30.12 in 10.0 mi West 8.1 mph - N/A   Overcast
3:15 PM 50.7 °F - 31.1 °F 47% 30.11 in 10.0 mi WNW 9.2 mph - N/A   Overcast
3:35 PM 50.2 °F - 30.9 °F 48% 30.11 in 10.0 mi NW 9.2 mph - N/A   Mostly Cloudy
3:55 PM 50.4 °F - 31.6 °F 49% 30.10 in 10.0 mi NW 9.2 mph 17.3 mph N/A   Overcast
4:15 PM 50.5 °F - 31.3 °F 48% 30.10 in 10.0 mi West 9.2 mph - N/A   Overcast
4:35 PM 51.4 °F - 31.3 °F 46% 30.09 in 10.0 mi WNW 9.2 mph - N/A   Overcast
5:15 PM 49.6 °F - 31.1 °F 49% 30.09 in 10.0 mi West 10.4 mph - N/A   Overcast
5:35 PM 50.0 °F - 31.1 °F 48% 30.09 in 10.0 mi NW 8.1 mph - N/A   Mostly Cloudy
5:55 PM 48.2 °F - 31.5 °F 52% 30.09 in 10.0 mi West 5.8 mph - N/A   Scattered Clouds
6:35 PM 44.6 °F 43.1 °F 32.0 °F 61% 30.08 in 10.0 mi West 3.5 mph - N/A   Clear
6:55 PM 42.1 °F 40.2 °F 32.0 °F 67% 30.08 in 10.0 mi WSW 3.5 mph - N/A   Clear
7:15 PM 40.1 °F 36.1 °F 32.0 °F 73% 30.08 in 10.0 mi WSW 5.8 mph - N/A   Clear
7:35 PM 39.4 °F 34.5 °F 32.0 °F 75% 30.09 in 10.0 mi SW 6.9 mph - N/A   Clear
7:55 PM 41.4 °F 37.6 °F 32.9 °F 72% 30.09 in 10.0 mi WSW 5.8 mph - N/A   Clear
8:15 PM 41.9 °F 38.2 °F 33.1 °F 71% 30.09 in 10.0 mi WSW 5.8 mph - N/A   Clear
8:35 PM 41.9 °F 39.0 °F 33.1 °F 71% 30.08 in 10.0 mi WSW 4.6 mph - N/A   Clear
8:55 PM 40.5 °F 37.3 °F 32.5 °F 73% 30.08 in 10.0 mi WSW 4.6 mph - N/A   Clear
9:15 PM 39.6 °F 37.4 °F 32.4 °F 75% 30.08 in 10.0 mi WSW 3.5 mph - N/A   Clear
9:35 PM 39.2 °F 35.9 °F 32.4 °F 76% 30.08 in 10.0 mi WSW 4.6 mph - N/A   Clear
9:55 PM 38.8 °F 35.4 °F 32.5 °F 78% 30.09 in 10.0 mi WSW 4.6 mph - N/A   Clear
10:15 PM 38.3 °F 35.9 °F 32.2 °F 79% 30.09 in 10.0 mi WSW 3.5 mph - N/A   Clear
10:35 PM 37.6 °F - 32.0 °F 80% 30.09 in 10.0 mi Calm Calm - N/A   Clear
10:55 PM 37.0 °F - 32.0 °F 82% 30.09 in 10.0 mi Calm Calm - N/A   Clear
11:15 PM 38.1 °F - 32.4 °F 80% 30.09 in 10.0 mi Calm Calm - N/A   Clear
11:35 PM 37.4 °F - 32.0 °F 81% 30.09 in 10.0 mi Calm Calm - N/A   Clear
11:55 PM 36.9 °F - 32.0 °F 83% 30.09 in 10.0 mi Calm Calm - N/A   Clear